Powrót do katalogu

THORAD AGENA D DEB

AktywnySSO
NORAD 42495·DEBRIS·🇺🇸 United States

Wystrzelony Apr 8, 1970 z Vandenberg Space Force Base

Loading…

Następne Przeloty (najbliższe 24 godziny)

TLE

Starzejące sięSource: Space-Track

Epoka: Sep 9, 2026, 10:34 UTC

1 42495U 70025QZ  26252.44051268  .00000110  00000-0  22034-3 0  9991
2 42495  99.9598 322.7609 0026230 283.0081  76.8127 13.56629956633239

Śledź THORAD AGENA D DEB w czasie rzeczywistym z AllMySat

Download on the App Store